TAIP55 YMES-YMES

Flight info

Callsign TAIP55
Flight time 0h 40m
Altitude 1500
Route YMES-VFR
Aircraft EC35/L-G/C

Departure

Time 2026-04-22 11:51
Airport RAAF Base East Sale (YMES)

Arrival

Time 2026-04-22 12:31
Airport RAAF Base East Sale (YMES)
Time Latitude Longitude Altitude Speed Heading
2026-04-22 11:47 -38.06823 147.09193 499 ft 65 kts 217°
2026-04-22 11:47 -38.07237 147.08941 500 ft 67 kts 199°
2026-04-22 11:47 -38.07702 147.08841 500 ft 68 kts 188°
2026-04-22 11:47 -38.08170 147.08815 500 ft 67 kts 182°
2026-04-22 11:48 -38.08619 147.08825 501 ft 62 kts 184°
2026-04-22 11:48 -38.09031 147.08809 501 ft 57 kts 187°
2026-04-22 11:48 -38.09412 147.08765 500 ft 53 kts 191°
2026-04-22 11:48 -38.09769 147.08691 500 ft 51 kts 196°
2026-04-22 11:49 -38.10104 147.08587 500 ft 49 kts 200°
2026-04-22 11:49 -38.10420 147.08454 500 ft 47 kts 204°
2026-04-22 11:49 -38.10719 147.08291 500 ft 46 kts 209°
2026-04-22 11:49 -38.10997 147.08102 500 ft 45 kts 214°
2026-04-22 11:50 -38.11260 147.07886 500 ft 45 kts 219°
2026-04-22 11:50 -38.11505 147.07646 502 ft 44 kts 224°
2026-04-22 11:50 -38.11726 147.07378 598 ft 44 kts 230°
2026-04-22 11:50 -38.11918 147.07074 697 ft 44 kts 237°
2026-04-22 11:51 -38.12078 147.06739 799 ft 44 kts 244°
2026-04-22 11:51 -38.12203 147.06381 900 ft 44 kts 251°
2026-04-22 11:51 -38.12233 147.05981 987 ft 51 kts 284°
2026-04-22 11:51 -38.12052 147.05568 980 ft 53 kts 299°
2026-04-22 11:52 -38.11831 147.05127 967 ft 72 kts 301°
2026-04-22 11:52 -38.11496 147.04509 962 ft 99 kts 303°
2026-04-22 11:52 -38.11086 147.03803 972 ft 98 kts 304°
2026-04-22 11:52 -38.10669 147.03122 968 ft 98 kts 307°
2026-04-22 11:53 -38.10236 147.02448 969 ft 98 kts 308°
2026-04-22 11:53 -38.09791 147.01792 969 ft 98 kts 310°
2026-04-22 11:53 -38.09334 147.01152 969 ft 98 kts 311°
2026-04-22 11:53 -38.08865 147.00523 972 ft 98 kts 313°
2026-04-22 11:54 -38.08353 146.99953 970 ft 99 kts 325°
2026-04-22 11:54 -38.07721 146.99607 970 ft 100 kts 343°
2026-04-22 11:54 -38.07036 146.99535 968 ft 101 kts
2026-04-22 11:54 -38.06341 146.99708 971 ft 102 kts 12°
2026-04-22 11:55 -38.05655 146.99940 970 ft 102 kts 14°
2026-04-22 11:55 -38.04977 147.00207 970 ft 102 kts 16°
2026-04-22 11:55 -38.04309 147.00506 971 ft 102 kts 18°
2026-04-22 11:55 -38.03649 147.00840 971 ft 102 kts 21°
2026-04-22 11:56 -38.03000 147.01207 970 ft 103 kts 23°
2026-04-22 11:56 -38.02360 147.01610 969 ft 102 kts 26°
2026-04-22 11:56 -38.01735 147.02042 888 ft 102 kts 27°
2026-04-22 11:56 -38.01121 147.02482 740 ft 101 kts 28°
2026-04-22 11:57 -38.00571 147.03015 669 ft 103 kts 56°
2026-04-22 11:57 -38.00465 147.03914 651 ft 104 kts 93°
2026-04-22 11:57 -38.00522 147.04826 635 ft 104 kts 96°
2026-04-22 11:57 -38.00622 147.05723 629 ft 103 kts 100°
2026-04-22 11:58 -38.00766 147.06632 625 ft 104 kts 104°
2026-04-22 11:58 -38.00950 147.07510 628 ft 104 kts 107°
2026-04-22 11:58 -38.01178 147.08392 626 ft 103 kts 110°
2026-04-22 11:58 -38.01441 147.09238 621 ft 103 kts 114°
2026-04-22 11:59 -38.01740 147.10053 625 ft 103 kts 117°
2026-04-22 11:59 -38.02082 147.10857 620 ft 104 kts 121°
2026-04-22 11:59 -38.02463 147.11636 620 ft 104 kts 124°
2026-04-22 11:59 -38.02879 147.12381 625 ft 103 kts 128°
2026-04-22 12:00 -38.03314 147.13100 623 ft 101 kts 122°
2026-04-22 12:00 -38.03271 147.13892 628 ft 92 kts 52°
2026-04-22 12:00 -38.02810 147.14530 630 ft 103 kts 42°
2026-04-22 12:00 -38.02388 147.15277 624 ft 104 kts 62°
2026-04-22 12:01 -38.02099 147.16105 621 ft 103 kts 67°
2026-04-22 12:01 -38.01845 147.16958 626 ft 103 kts 70°
2026-04-22 12:01 -38.01685 147.17840 619 ft 103 kts 85°
2026-04-22 12:01 -38.01751 147.18746 625 ft 104 kts 104°
2026-04-22 12:02 -38.02038 147.19579 621 ft 103 kts 123°
2026-04-22 12:02 -38.02506 147.20245 619 ft 102 kts 142°
2026-04-22 12:02 -38.03074 147.20781 625 ft 102 kts 145°
2026-04-22 12:02 -38.03648 147.21317 626 ft 102 kts 144°
2026-04-22 12:03 -38.04216 147.21860 622 ft 102 kts 144°
2026-04-22 12:03 -38.04780 147.22413 621 ft 102 kts 143°
2026-04-22 12:03 -38.05337 147.22972 628 ft 102 kts 143°
2026-04-22 12:03 -38.05892 147.23540 620 ft 102 kts 142°
2026-04-22 12:04 -38.06447 147.24107 623 ft 101 kts 147°
2026-04-22 12:04 -38.07103 147.24260 630 ft 92 kts 190°
2026-04-22 12:04 -38.07631 147.23962 620 ft 80 kts 227°
2026-04-22 12:04 -38.07997 147.23375 609 ft 96 kts 235°
2026-04-22 12:05 -38.08397 147.22660 623 ft 98 kts 235°
2026-04-22 12:05 -38.08784 147.21957 622 ft 98 kts 236°
2026-04-22 12:05 -38.09165 147.21243 624 ft 97 kts 237°
2026-04-22 12:05 -38.09413 147.20769 622 ft 97 kts 237°
2026-04-22 12:06 -38.09782 147.20051 619 ft 97 kts 238°
2026-04-22 12:06 -38.10260 147.19088 625 ft 97 kts 239°
2026-04-22 12:06 -38.10613 147.18358 619 ft 97 kts 240°
2026-04-22 12:06 -38.10844 147.17870 620 ft 97 kts 240°
2026-04-22 12:07 -38.11188 147.17130 620 ft 97 kts 240°
2026-04-22 12:07 -38.11524 147.16388 624 ft 97 kts 241°
2026-04-22 12:07 -38.11853 147.15642 619 ft 97 kts 242°
2026-04-22 12:07 -38.12174 147.14890 625 ft 97 kts 243°
2026-04-22 12:08 -38.12488 147.14130 620 ft 97 kts 244°
2026-04-22 12:08 -38.12794 147.13363 626 ft 98 kts 244°
2026-04-22 12:08 -38.13093 147.12590 620 ft 97 kts 245°
2026-04-22 12:08 -38.13386 147.11817 625 ft 97 kts 245°
2026-04-22 12:09 -38.13672 147.11042 627 ft 97 kts 246°
2026-04-22 12:09 -38.13952 147.10267 619 ft 97 kts 246°
2026-04-22 12:09 -38.14225 147.09489 620 ft 97 kts 247°
2026-04-22 12:09 -38.14491 147.08704 625 ft 97 kts 248°
2026-04-22 12:10 -38.14749 147.07917 620 ft 96 kts 249°
2026-04-22 12:10 -38.15000 147.07122 625 ft 97 kts 249°
2026-04-22 12:10 -38.15244 147.06322 623 ft 97 kts 250°
2026-04-22 12:10 -38.15482 147.05524 620 ft 97 kts 250°
2026-04-22 12:11 -38.15714 147.04719 625 ft 97 kts 251°
2026-04-22 12:11 -38.15939 147.03912 620 ft 97 kts 251°
2026-04-22 12:11 -38.16095 147.03085 620 ft 96 kts 264°
2026-04-22 12:11 -38.16068 147.02248 623 ft 97 kts 280°
2026-04-22 12:12 -38.15851 147.01438 620 ft 97 kts 296°
2026-04-22 12:12 -38.15462 147.00737 623 ft 98 kts 311°
2026-04-22 12:12 -38.14932 147.00201 620 ft 98 kts 327°
2026-04-22 12:12 -38.14312 146.99826 620 ft 99 kts 335°
2026-04-22 12:13 -38.13674 146.99501 621 ft 99 kts 338°
2026-04-22 12:13 -38.13024 146.99219 624 ft 99 kts 340°
2026-04-22 12:13 -38.12360 146.98978 629 ft 99 kts 343°
2026-04-22 12:13 -38.11696 146.98782 621 ft 99 kts 346°
2026-04-22 12:14 -38.11015 146.98627 620 ft 100 kts 349°
2026-04-22 12:14 -38.10324 146.98517 620 ft 100 kts 352°
2026-04-22 12:14 -38.09631 146.98451 630 ft 100 kts 355°
2026-04-22 12:14 -38.08933 146.98430 622 ft 100 kts 358°
2026-04-22 12:15 -38.08238 146.98452 621 ft 100 kts
2026-04-22 12:15 -38.07545 146.98518 623 ft 100 kts
2026-04-22 12:15 -38.06852 146.98630 619 ft 101 kts
2026-04-22 12:15 -38.06170 146.98786 620 ft 101 kts
2026-04-22 12:16 -38.05485 146.98990 620 ft 101 kts 12°
2026-04-22 12:16 -38.04808 146.99236 620 ft 101 kts 15°
2026-04-22 12:16 -38.04145 146.99523 622 ft 101 kts 18°
2026-04-22 12:16 -38.03543 146.99964 619 ft 103 kts 47°
2026-04-22 12:17 -38.03307 147.00812 619 ft 104 kts 85°
2026-04-22 12:17 -38.03266 147.01729 620 ft 104 kts 88°
2026-04-22 12:17 -38.03273 147.02640 621 ft 103 kts 92°
2026-04-22 12:17 -38.03331 147.03549 621 ft 104 kts 96°
2026-04-22 12:18 -38.03438 147.04451 625 ft 103 kts 101°
2026-04-22 12:18 -38.03594 147.05342 626 ft 104 kts 104°
2026-04-22 12:18 -38.03798 147.06214 620 ft 103 kts 108°
2026-04-22 12:18 -38.04046 147.07066 623 ft 103 kts 112°
2026-04-22 12:19 -38.04337 147.07885 624 ft 103 kts 116°
2026-04-22 12:19 -38.04674 147.08686 619 ft 103 kts 121°
2026-04-22 12:19 -38.05055 147.09457 620 ft 103 kts 125°
2026-04-22 12:19 -38.05475 147.10189 622 ft 103 kts 129°
2026-04-22 12:20 -38.05936 147.10883 619 ft 103 kts 133°
2026-04-22 12:20 -38.06432 147.11532 619 ft 102 kts 137°
2026-04-22 12:20 -38.06962 147.12135 624 ft 102 kts 142°
2026-04-22 12:20 -38.07522 147.12688 620 ft 102 kts 146°
2026-04-22 12:21 -38.08113 147.13192 620 ft 102 kts 149°
2026-04-22 12:21 -38.08729 147.13640 621 ft 102 kts 154°
2026-04-22 12:21 -38.09357 147.14028 620 ft 101 kts 158°
2026-04-22 12:21 -38.10010 147.14363 621 ft 101 kts 161°
2026-04-22 12:22 -38.10678 147.14639 621 ft 101 kts 166°
2026-04-22 12:22 -38.11355 147.14856 620 ft 100 kts 170°
2026-04-22 12:22 -38.12044 147.15010 624 ft 100 kts 174°
2026-04-22 12:22 -38.12738 147.15100 626 ft 100 kts 178°
2026-04-22 12:23 -38.13437 147.15126 626 ft 100 kts 182°
2026-04-22 12:23 -38.14131 147.15089 621 ft 100 kts 186°
2026-04-22 12:23 -38.14819 147.14993 622 ft 99 kts 190°
2026-04-22 12:23 -38.15496 147.14836 621 ft 99 kts 194°
2026-04-22 12:24 -38.16164 147.14618 624 ft 99 kts 199°
2026-04-22 12:24 -38.16780 147.14262 625 ft 98 kts 221°
2026-04-22 12:24 -38.17139 147.13539 621 ft 98 kts 247°
2026-04-22 12:24 -38.17383 147.12742 620 ft 97 kts 252°
2026-04-22 12:25 -38.17571 147.11922 626 ft 97 kts 257°
2026-04-22 12:25 -38.17700 147.11082 620 ft 97 kts 262°
2026-04-22 12:25 -38.17769 147.10231 621 ft 97 kts 266°
2026-04-22 12:25 -38.17776 147.09385 622 ft 97 kts 272°
2026-04-22 12:26 -38.17724 147.08533 621 ft 97 kts 276°
2026-04-22 12:26 -38.17611 147.07690 627 ft 96 kts 282°
2026-04-22 12:26 -38.17441 147.06868 620 ft 96 kts 287°
2026-04-22 12:26 -38.17211 147.06064 622 ft 97 kts 292°
2026-04-22 12:27 -38.16925 147.05288 622 ft 97 kts 297°
2026-04-22 12:27 -38.16587 147.04549 621 ft 96 kts 301°
2026-04-22 12:27 -38.16201 147.03852 620 ft 97 kts 306°
2026-04-22 12:27 -38.15762 147.03196 621 ft 98 kts 311°
2026-04-22 12:28 -38.15280 147.02590 619 ft 97 kts 316°
2026-04-22 12:28 -38.14757 147.02041 619 ft 98 kts 321°
2026-04-22 12:28 -38.14195 147.01552 620 ft 98 kts 326°
2026-04-22 12:28 -38.13601 147.01129 621 ft 98 kts 331°
2026-04-22 12:29 -38.12975 147.00771 620 ft 99 kts 336°
2026-04-22 12:29 -38.12328 147.00484 621 ft 98 kts 341°
2026-04-22 12:29 -38.11662 147.00269 620 ft 99 kts 346°
2026-04-22 12:29 -38.10988 147.00129 620 ft 100 kts 351°
2026-04-22 12:30 -38.09691 146.99724 552 ft 88 kts 324°
2026-04-22 12:30 -38.09329 146.99195 400 ft 72 kts 292°
2026-04-22 12:30 -38.09245 146.98649 266 ft 56 kts 279°
2026-04-22 12:31 -38.09205 146.98187 268 ft 54 kts 278°
2026-04-22 12:31 -38.09155 146.97702 274 ft 57 kts 277°
2026-04-22 12:31 -38.09125 146.97187 180 ft 58 kts 271°
2026-04-22 12:31 -38.09109 146.96757 107 ft 36 kts 278°
2026-04-22 12:32 -38.09085 146.96558 95 ft 14 kts 286°
2026-04-22 12:32 -38.09081 146.96495 71 ft 0 kts 279°